Regional Weather Roundup
Issued by NWS

Home | Current Version | Previous Version | Graphics & Text | Print | Product List | Glossary On
Versions: 1 2 3 4 5 6 7 8 9 10 11 12 13 14 15 16 17 18 19 20 21 22 23 24 25 26 27 28 29 30 31 32 33 34 35 36 37 38 39 40 41 42 43 44 45 46 47 48 49 50
000
ASUS43 KIND 171159
RWRIN

WEATHER ROUNDUP FOR INDIANA
NATIONAL WEATHER SERVICE INDIANAPOLIS IN
800 AM EDT THU APR 17 2014

NOTE: "FAIR" INDICATES FEW OR NO CLOUDS BELOW 12,000 FEET WITH NO
SIGNIFICANT WEATHER AND/OR OBSTRUCTIONS TO VISIBILITY.

* - STATION DOES NOT REPORT WEATHER SUCH AS PRECIPITATION OR FOG.

+ - STATION NOT QUALITY CONTROLLED BY THE NATIONAL WEATHER SERVICE.
    USE DATA WITH CAUTION...ESPECIALLY DEWPOINT AND RELATIVE
    HUMIDITY OBSERVATIONS.

INZ001>003-010>013-019-020-171300-
NORTHWEST INDIANA

CITY           SKY/WX    TMP DP  RH WIND       PRES   REMARKS
GARY /AIRPORT/ MOCLDY    43  25  49 S14       30.17R
LA PORTE +     PTCLDY    38  25  60 S7        30.21R
6HR MIN TEMP:  36; 6HR MAX TEMP:  39;

MONTICELLO +   CLEAR     37  27  66 SE5       30.21R
VALPARAISO     CLEAR     38  25  59 SE9       30.19S
6HR MIN TEMP:  36; 6HR MAX TEMP:  39;


$$

LMZ046-743>745-171300-
SOUTHERN LAKE MICHIGAN

STATION/POSITION TIME  TEMP WIND        PRES
                       AIR  DIR/SP/G
                 (UTC) (F)  (DEG/KT/KT) (MB)
MICHIGAN CITY    1100   40  130/ 14/ 19   N/A

$$

INZ004-005-014>016-021>024-171300-
NORTH CENTRAL INDIANA

CITY           SKY/WX    TMP DP  RH WIND       PRES   REMARKS
ELKHART        SUNNY     36  25  64 SE7       30.24R
GOSHEN         MOSUNNY   37  25  61 SE10      30.24S
6HR MIN TEMP:  35; 6HR MAX TEMP:  39;

SOUTH BEND     PTCLDY    39  24  55 SE12      30.22S
6HR MIN TEMP:  37; 6HR MAX TEMP:  42;


$$

INZ006>009-017-018-025>027-171300-
NORTHEAST INDIANA

CITY           SKY/WX    TMP DP  RH WIND       PRES   REMARKS
ANGOLA *+      SUNNY     34  25  69 SE8       30.27R WCI  27
FORT WAYNE     PTSUNNY   33  26  75 E7        30.28R WCI  27
6HR MIN TEMP:  28; 6HR MAX TEMP:  36;


$$

INZ028-029-035-036-043>045-051>053-171300-
WEST CENTRAL INDIANA

CITY           SKY/WX    TMP DP  RH WIND       PRES   REMARKS
GREENCASTLE +  CLEAR     34  27  75 SE5       30.25R WCI  30
LAFAYETTE      CLEAR     39  25  57 S7        30.21S
6HR MIN TEMP:  33; 6HR MAX TEMP:  39;

TERRE HAUTE    CLEAR     39  28  64 S6        30.24R
6HR MIN TEMP:  37; 6HR MAX TEMP:  40;


$$

INZ030>032-037>040-046>048-054>057-064-065-171300-
CENTRAL INDIANA

CITY           SKY/WX    TMP DP  RH WIND       PRES   REMARKS
COLUMBUS       PTCLDY    36  28  75 MISG      30.29R
INDIANAPOLIS   PTCLDY    38  25  59 SE8       30.26R
6HR MIN TEMP:  34; 6HR MAX TEMP:  40;

-EAGLE CREEK   CLEAR     38  24  57 SE5       30.25R
6HR MIN TEMP:  35; 6HR MAX TEMP:  41;

KOKOMO *+      CLEAR     37  27  65 S13       30.24S
MT COMFORT *+  CLEAR     39  28  65 S9        30.27R
SHELBYVILLE    CLEAR     42  27  55 SE13      30.27R
6HR MIN TEMP:  36; 6HR MAX TEMP:  42;


$$

INZ033-034-041-042-049-050-058-059-171300-
EAST CENTRAL INDIANA

CITY           SKY/WX    TMP DP  RH WIND       PRES   REMARKS
MUNCIE         SUNNY     41  23  48 S8G18     30.27R
6HR MIN TEMP:  37; 6HR MAX TEMP:  41;


$$

INZ060-061-067>069-081>083-085>088-171300-
SOUTHWEST INDIANA

CITY           SKY/WX    TMP DP  RH WIND       PRES   REMARKS
EVANSVILLE     CLEAR     44  31  60 S5        30.28R
6HR MIN TEMP:  38; 6HR MAX TEMP:  46;

HUNTINGBURG *+ CLEAR     43  30  61 S7        30.29R
6HR MIN TEMP:  41; 6HR MAX TEMP:  43;


$$

INZ062-063-066-070>080-084-089>092-171300-
SOUTH CENTRAL AND SOUTHEAST INDIANA

CITY           SKY/WX    TMP DP  RH WIND       PRES   REMARKS
BLOOMINGTON    CLEAR     41  25  53 SE10      30.26R
6HR MIN TEMP:  38; 6HR MAX TEMP:  43;


$$




USA.gov is the U.S. government's official web portal to all federal, state and local government web resources and services.